GW6879 Weather Reports


time (UTC)temp
C
wind
direction
speed
KPH
gust
KPH
rain 1hr
cm
rain 24hr
cm
rain mn
cm
humidity
%
barometer
mb
20260906231031 22 236 8.0 22.5 0.00 0.00 0.00 34 1022.8
20260906230524 22 11 9.7 22.5 0.00 0.00 0.00 34 1022.9
20260906230123 22 227 12.9 22.5 0.00 0.00 0.00 34 1022.8
20260906225538 22 329 6.4 22.5 0.00 0.00 0.00 33 1022.9
20260906225021 22 342 8.0 22.5 0.00 0.00 0.00 33 1022.9
20260906224606 22 246 8.0 17.7 0.00 0.00 0.00 32 1023.0
20260906224018 22 286 6.4 17.7 0.00 0.00 0.00 32 1023.0
20260906223525 22 232 3.2 19.3 0.00 0.00 0.00 32 1023.1
20260906223124 22 146 6.4 19.3 0.00 0.00 0.00 31 1022.9
20260906222531 22 259 3.2 14.5 0.00 0.00 0.00 31 1023.0
20260906222021 22 270 3.2 14.5 0.00 0.00 0.00 31 1022.9
20260906221624 23 229 4.8 17.7 0.00 0.00 0.00 31 1023.0
20260906221017 23 240 6.4 17.7 0.00 0.00 0.00 31 1023.0
20260906220523 23 200 6.4 17.7 0.00 0.00 0.00 31 1023.0
20260906220124 22 265 11.3 22.5 0.00 0.00 0.00 31 1023.1
20260906215520 22 216 12.9 22.5 0.00 0.00 0.00 31 1023.0
20260906215016 22 223 4.8 25.7 0.00 0.00 0.00 31 1023.1
20260906214641 22 192 8.0 25.7 0.00 0.00 0.00 31 1023.2
20260906214021 22 115 14.5 27.4 0.00 0.00 0.00 31 1023.1
20260906213518 23 218 12.9 24.1 0.00 0.00 0.00 30 1023.4
20260906213111 23 259 4.8 17.7 0.00 0.00 0.00 29 1023.4
20260906212523 24 252 6.4 17.7 0.00 0.00 0.00 29 1023.5
20260906212034 24 183 11.3 17.7 0.00 0.00 0.00 28 1023.6
20260906211623 24 215 9.7 17.7 0.00 0.00 0.00 27 1023.6
20260906211024 25 215 12.9 19.3 0.00 0.00 0.00 27 1023.4
20260906210538 25 252 4.8 19.3 0.00 0.00 0.00 26 1023.6
20260906210123 25 210 4.8 22.5 0.00 0.00 0.00 26 1023.6
20260906205528 25 204 11.3 22.5 0.00 0.00 0.00 26 1023.6
20260906205020 25 93 8.0 22.5 0.00 0.00 0.00 26 1023.7
20260906204626 25 213 9.7 22.5 0.00 0.00 0.00 25 1023.6
20260906204023 26 204 12.9 24.1 0.00 0.00 0.00 24 1023.7
20260906203525 27 199 12.9 19.3 0.00 0.00 0.00 24 1023.8
20260906203123 27 162 8.0 25.7 0.00 0.00 0.00 24 1023.9
20260906202518 27 202 9.7 25.7 0.00 0.00 0.00 24 1023.9
20260906202024 27 174 17.7 29.0 0.00 0.00 0.00 23 1023.9
20260906201622 26 149 8.0 20.9 0.00 0.00 0.00 25 1023.7
20260906201023 26 173 12.9 25.7 0.00 0.00 0.00 24 1023.7
20260906200535 27 167 11.3 25.7 0.00 0.00 0.00 24 1023.8
20260906200049 27 163 14.5 25.7 0.00 0.00 0.00 24 1023.7
20260906195518 26 161 11.3 25.7 0.00 0.00 0.00 25 1023.9
20260906195033 25 189 11.3 30.6 0.00 0.00 0.00 25 1024.0
20260906194547 26 226 12.9 43.5 0.00 0.00 0.00 25 1024.0
20260906194037 26 202 17.7 43.5 0.00 0.00 0.00 25 1023.8
20260906193524 26 160 16.1 30.6 0.00 0.00 0.00 24 1023.7
20260906193102 26 181 11.3 29.0 0.00 0.00 0.00 24 1023.8
20260906192528 27 153 14.5 27.4 0.00 0.00 0.00 24 1024.0
20260906192032 27 207 9.7 19.3 0.00 0.00 0.00 24 1024.0
20260906191641 27 194 8.0 20.9 0.00 0.00 0.00 24 1024.2
20260906191023 27 154 11.3 20.9 0.00 0.00 0.00 24 1024.4
20260906190535 26 178 8.0 17.7 0.00 0.00 0.00 25 1024.3
20260906190145 26 176 11.3 17.7 0.00 0.00 0.00 24 1024.4
20260906185524 26 175 8.0 25.7 0.00 0.00 0.00 25 1024.4
20260906185025 25 209 12.9 25.7 0.00 0.00 0.00 25 1024.5
20260906184640 25 196 9.7 22.5 0.00 0.00 0.00 25 1024.5
20260906184024 25 176 11.3 25.7 0.00 0.00 0.00 25 1024.8
20260906183533 24 184 6.4 16.1 0.00 0.00 0.00 26 1024.9
20260906183124 23 180 9.7 19.3 0.00 0.00 0.00 26 1024.9
20260906182539 24 189 4.8 24.1 0.00 0.00 0.00 26 1024.9
20260906182021 23 192 11.3 24.1 0.00 0.00 0.00 26 1024.9
20260906181629 23 195 9.7 22.5 0.00 0.00 0.00 26 1025.1
20260906181028 23 265 11.3 22.5 0.00 0.00 0.00 26 1025.3
20260906180526 24 167 8.0 20.9 0.00 0.00 0.00 26 1025.5
20260906180120 24 233 8.0 19.3 0.00 0.00 0.00 26 1025.3
20260906175530 23 202 6.4 24.1 0.00 0.00 0.00 25 1025.6
20260906175031 23 198 9.7 24.1 0.00 0.00 0.00 25 1025.5
20260906174658 23 180 9.7 22.5 0.00 0.00 0.00 26 1025.6
20260906174027 23 180 9.7 22.5 0.00 0.00 0.00 26 1025.6
20260906173527 24 202 8.0 20.9 0.00 0.00 0.00 25 1025.6
20260906173153 24 194 6.4 14.5 0.00 0.00 0.00 25 1025.6
20260906172531 24 144 8.0 19.3 0.00 0.00 0.00 24 1025.6
20260906172032 24 167 8.0 19.3 0.00 0.00 0.00 23 1025.8
20260906171633 25 197 8.0 16.1 0.00 0.00 0.00 22 1025.8
20260906171117 25 161 6.4 14.5 0.00 0.00 0.00 23 1025.7
20260906170537 24 205 8.0 14.5 0.00 0.00 0.00 23 1025.7
20260906170126 24 191 6.4 16.1 0.00 0.00 0.00 23 1025.8
20260906165518 23 181 4.8 22.5 0.00 0.00 0.00 24 1025.8
20260906165041 23 139 8.0 22.5 0.00 0.00 0.00 24 1025.8
20260906164644 24 161 4.8 14.5 0.00 0.00 0.00 24 1025.9
20260906164020 25 137 9.7 17.7 0.00 0.00 0.00 23 1026.0
20260906163523 25 162 4.8 22.5 0.00 0.00 0.00 24 1025.8
20260906163125 25 198 11.3 22.5 0.00 0.00 0.00 24 1025.8
20260906162543 24 159 4.8 16.1 0.00 0.00 0.00 24 1025.8
20260906162033 23 180 8.0 19.3 0.00 0.00 0.00 25 1025.7
20260906161647 23 163 8.0 19.3 0.00 0.00 0.00 25 1025.7
20260906161049 23 140 8.0 19.3 0.00 0.00 0.00 25 1025.8
20260906160537 23 160 9.7 19.3 0.00 0.00 0.00 25 1025.8
20260906160143 23 205 6.4 16.1 0.00 0.00 0.00 25 1025.7
20260906155546 23 150 8.0 16.1 0.00 0.00 0.00 25 1025.7
20260906155028 23 157 8.0 16.1 0.00 0.00 0.00 25 1025.7
20260906154638 23 153 8.0 12.9 0.00 0.00 0.00 25 1025.7
20260906154025 23 161 8.0 12.9 0.00 0.00 0.00 25 1025.7
20260906153529 23 163 4.8 12.9 0.00 0.00 0.00 26 1025.9
20260906153134 22 163 8.0 12.9 0.00 0.00 0.00 26 1025.9
20260906152535 22 144 4.8 16.1 0.00 0.00 0.00 27 1025.9
20260906152029 21 123 9.7 16.1 0.00 0.00 0.00 27 1025.8
20260906151638 21 146 4.8 14.5 0.00 0.00 0.00 29 1025.8
20260906151032 21 134 9.7 16.1 0.00 0.00 0.00 29 1025.7
20260906150545 20 141 11.3 17.7 0.00 0.00 0.00 29 1025.7
20260906150205 20 151 12.9 17.7 0.00 0.00 0.00 30 1025.7
20260906145520 20 141 11.3 20.9 0.00 0.00 0.00 30 1025.9
20260906145034 19 144 14.5 20.9 0.00 0.00 0.00 31 1025.9
20260906144627 19 136 14.5 20.9 0.00 0.00 0.00 31 1025.8
20260906144029 19 117 16.1 20.9 0.00 0.00 0.00 31 1025.8
20260906143527 19 135 14.5 19.3 0.00 0.00 0.00 31 1025.7
20260906143136 19 142 12.9 19.3 0.00 0.00 0.00 32 1025.6
20260906142519 18 129 11.3 19.3 0.00 0.00 0.00 33 1025.9
20260906142020 18 136 11.3 20.9 0.00 0.00 0.00 34 1025.9
20260906141623 18 147 12.9 24.1 0.00 0.00 0.00 34 1025.9
20260906141028 17 136 12.9 25.7 0.00 0.00 0.00 36 1025.9
20260906140524 17 112 17.7 29.0 0.00 0.00 0.00 37 1025.9
20260906140151 17 116 20.9 29.0 0.00 0.00 0.00 37 1025.9
20260906135559 17 137 17.7 25.7 0.00 0.00 0.00 36 1025.8
20260906135037 17 136 19.3 25.7 0.00 0.00 0.00 38 1025.8
20260906134619 17 132 17.7 27.4 0.00 0.00 0.00 38 1025.7
20260906134036 17 126 19.3 30.6 0.00 0.00 0.00 38 1025.6
20260906133541 17 137 19.3 29.0 0.00 0.00 0.00 38 1025.6
20260906133126 16 132 17.7 27.4 0.00 0.00 0.00 38 1025.4
20260906132522 16 115 16.1 27.4 0.00 0.00 0.00 37 1025.4
20260906132107 16 141 16.1 25.7 0.00 0.00 0.00 37 1025.4
20260906131609 16 125 16.1 25.7 0.00 0.00 0.00 37 1025.3
20260906131023 16 126 16.1 22.5 0.00 0.00 0.00 37 1025.2
20260906130527 16 134 14.5 22.5 0.00 0.00 0.00 36 1025.2
20260906130131 16 128 14.5 22.5 0.00 0.00 0.00 35 1025.2
20260906125616 17 121 14.5 22.5 0.00 0.00 0.00 35 1025.1
20260906125025 16 136 12.9 20.9 0.00 0.00 0.00 34 1025.1
20260906124659 16 138 11.3 19.3 0.00 0.00 0.00 34 1025.3
20260906124029 16 136 12.9 20.9 0.00 0.00 0.00 34 1025.2
20260906123542 16 132 11.3 22.5 0.00 0.00 0.00 34 1025.1
20260906123200 16 130 12.9 19.3 0.00 0.00 0.00 34 1025.1
20260906122542 16 141 11.3 17.7 0.00 0.00 0.00 34 1025.2
20260906122039 16 132 9.7 16.1 0.00 0.00 0.00 34 1025.2
20260906121552 16 137 8.0 16.1 0.00 0.00 0.00 35 1025.1
20260906121025 16 134 9.7 17.7 0.00 0.00 0.00 35 1025.0
20260906120618 16 132 12.9 17.7 0.00 0.00 0.00 35 1025.0
20260906120202 16 126 11.3 19.3 0.00 0.00 0.00 35 1025.0
20260906115531 16 137 11.3 19.3 0.00 0.00 0.00 35 1025.1
20260906115042 16 125 12.9 19.3 0.00 0.00 0.00 35 1025.1
20260906114619 16 149 9.7 16.1 0.00 0.00 0.00 35 1025.1
20260906114028 16 141 8.0 17.7 0.00 0.00 0.00 35 1025.0
20260906113533 17 137 9.7 17.7 0.00 0.00 0.00 35 1025.0
20260906113125 17 146 8.0 16.1 0.00 0.00 0.00 35 1025.0
20260906112528 16 123 9.7 14.5 0.00 0.00 0.00 35 1025.2
20260906112025 16 133 9.7 16.1 0.00 0.00 0.00 35 1025.2
20260906111604 16 141 8.0 16.1 0.00 0.00 0.00 35 1025.3
20260906111039 16 139 6.4 14.5 0.00 0.00 0.00 34 1025.3
20260906110532 16 141 8.0 16.1 0.00 0.00 0.00 35 1025.4
20260906110206 16 129 9.7 16.1 0.00 0.00 0.00 35 1025.4
20260906105538 16 138 8.0 17.7 0.00 0.00 0.00 35 1025.3
20260906105027 16 136 8.0 14.5 0.00 0.00 0.00 36 1025.2
20260906104657 16 122 9.7 14.5 0.00 0.00 0.00 35 1025.3
20260906104037 16 146 4.8 11.3 0.00 0.00 0.00 35 1025.3
20260906103537 16 155 4.8 8.0 0.00 0.00 0.00 34 1025.2
20260906103145 16 136 4.8 8.0 0.00 0.00 0.00 34 1025.3
20260906102526 16 165 3.2 11.3 0.00 0.00 0.00 34 1025.2
20260906102027 16 142 6.4 11.3 0.00 0.00 0.00 33 1025.0
20260906101624 16 146 4.8 11.3 0.00 0.00 0.00 34 1024.9
20260906101023 16 161 4.8 14.5 0.00 0.00 0.00 34 1024.8
20260906100542 17 163 8.0 12.9 0.00 0.00 0.00 33 1024.8
20260906100045 17 171 6.4 12.9 0.00 0.00 0.00 33 1024.8
20260906095532 17 169 8.0 14.5 0.00 0.00 0.00 33 1024.9
20260906095021 17 160 8.0 12.9 0.00 0.00 0.00 32 1024.9
20260906094619 17 169 4.8 12.9 0.00 0.00 0.00 33 1024.8
20260906094027 17 173 4.8 14.5 0.00 0.00 0.00 33 1024.8
20260906093527 17 165 6.4 14.5 0.00 0.00 0.00 33 1024.8
20260906093131 17 152 6.4 12.9 0.00 0.00 0.00 33 1024.9
20260906092523 16 160 6.4 14.5 0.00 0.00 0.00 34 1024.9
20260906092028 16 161 6.4 16.1 0.00 0.00 0.00 34 1024.9
20260906091642 16 147 8.0 16.1 0.00 0.00 0.00 34 1024.8
20260906091021 16 154 6.4 19.3 0.00 0.00 0.00 34 1024.7
20260906090525 17 153 8.0 20.9 0.00 0.00 0.00 34 1024.8
20260906090128 17 144 11.3 20.9 0.00 0.00 0.00 34 1024.7
20260906085603 17 164 8.0 16.1 0.00 0.00 0.00 34 1024.7
20260906085033 17 155 8.0 11.3 0.00 0.00 0.00 35 1024.7
20260906084545 17 152 4.8 16.1 0.00 0.00 0.00 34 1024.7
20260906084023 17 111 6.4 16.1 0.00 0.00 0.00 34 1024.7
20260906083528 17 138 9.7 16.1 0.00 0.00 0.00 34 1024.7
20260906083156 17 147 8.0 19.3 0.00 0.00 0.00 35 1024.8
20260906082529 17 146 8.0 20.9 0.00 0.00 0.00 34 1024.7
20260906082041 17 144 11.3 19.3 0.00 0.00 0.00 34 1024.7
20260906081659 17 146 11.3 17.7 0.00 0.00 0.00 35 1024.8
20260906081036 17 137 9.7 19.3 0.00 0.00 0.00 35 1024.8
20260906080533 17 124 14.5 19.3 0.00 0.00 0.00 35 1025.0
20260906080218 17 146 9.7 14.5 0.00 0.00 0.00 34 1024.9
20260906075517 17 137 8.0 14.5 0.00 0.00 0.00 34 1024.9
20260906075020 17 143 6.4 16.1 0.00 0.00 0.00 33 1025.1
20260906074642 17 130 8.0 19.3 0.00 0.00 0.00 33 1025.1
20260906074030 17 141 9.7 19.3 0.00 0.00 0.00 34 1025.2
20260906073541 17 138 6.4 16.1 0.00 0.00 0.00 35 1025.2
20260906073047 17 160 4.8 11.3 0.00 0.00 0.00 34 1025.2
20260906072528 17 154 4.8 16.1 0.00 0.00 0.00 34 1025.2
20260906072021 18 159 4.8 20.9 0.00 0.00 0.00 34 1025.2
20260906071639 18 138 12.9 22.5 0.00 0.00 0.00 34 1025.4
20260906071021 18 117 14.5 27.4 0.00 0.00 0.00 34 1025.4
20260906070533 18 130 19.3 27.4 0.00 0.00 0.00 34 1025.3
20260906070119 18 138 17.7 24.1 0.00 0.00 0.00 34 1025.2
20260906065544 18 129 17.7 24.1 0.00 0.00 0.00 34 1025.2
20260906065033 18 117 12.9 25.7 0.00 0.00 0.00 34 1025.2
20260906064619 18 119 14.5 25.7 0.00 0.00 0.00 34 1025.2
20260906064059 18 128 19.3 25.7 0.00 0.00 0.00 36 1025.1
20260906063525 18 136 6.4 14.5 0.00 0.00 0.00 36 1025.0
20260906063125 18 128 9.7 16.1 0.00 0.00 0.00 35 1025.1
20260906062531 18 142 11.3 22.5 0.00 0.00 0.00 35 1025.0
20260906062024 18 158 12.9 19.3 0.00 0.00 0.00 35 1025.0
20260906061632 18 131 11.3 17.7 0.00 0.00 0.00 36 1025.0
20260906061032 18 146 9.7 17.7 0.00 0.00 0.00 36 1025.1
20260906060536 18 130 8.0 12.9 0.00 0.00 0.00 34 1025.1
20260906060137 18 165 3.2 14.5 0.00 0.00 0.00 33 1025.2
20260906055536 18 142 9.7 14.5 0.00 0.00 0.00 34 1024.9
20260906055028 18 126 6.4 12.9 0.00 0.00 0.00 35 1025.0
20260906054627 18 126 6.4 12.9 0.00 0.00 0.00 34 1024.9
20260906054029 18 136 3.2 12.9 0.00 0.00 0.00 34 1025.0
20260906053524 18 125 8.0 12.9 0.00 0.00 0.00 35 1024.8
20260906053200 18 172 4.8 9.7 0.00 0.00 0.00 35 1024.9
20260906052538 18 150 3.2 8.0 0.00 0.00 0.00 37 1024.9
20260906052046 18 171 3.2 6.4 0.00 0.00 0.00 37 1025.0
20260906051638 18 161 1.6 8.0 0.00 0.00 0.00 36 1024.9
20260906051037 18 182 3.2 8.0 0.00 0.00 0.00 36 1025.1
20260906050527 18 211 4.8 8.0 0.00 0.00 0.00 35 1024.9
20260906050142 18 213 3.2 9.7 0.00 0.00 0.00 36 1024.9
20260906045521 18 193 3.2 9.7 0.00 0.00 0.00 36 1024.8
20260906045022 18 220 3.2 9.7 0.00 0.00 0.00 37 1024.8
20260906044641 18 202 3.2 9.7 0.00 0.00 0.00 37 1024.8
20260906044045 18 211 3.2 8.0 0.00 0.00 0.00 37 1024.9
20260906043525 18 197 3.2 8.0 0.00 0.00 0.00 38 1025.0
20260906043143 18 196 3.2 6.4 0.00 0.00 0.00 38 1025.0
20260906042532 18 166 3.2 14.5 0.00 0.00 0.00 38 1024.9
20260906042027 18 189 4.8 14.5 0.00 0.00 0.00 37 1025.0
20260906041659 18 200 3.2 6.4 0.00 0.00 0.00 38 1025.0
20260906041032 18 173 3.2 6.4 0.00 0.00 0.00 38 1025.0
20260906040532 18 173 1.6 4.8 0.00 0.00 0.00 38 1025.0
20260906040139 18 193 1.6 6.4 0.00 0.00 0.00 38 1025.0
20260906035519 18 194 3.2 6.4 0.00 0.00 0.00 37 1024.9
20260906035045 19 184 3.2 8.0 0.00 0.00 0.00 37 1025.0
20260906034606 19 188 3.2 8.0 0.00 0.00 0.00 37 1024.9
20260906034024 19 192 3.2 8.0 0.00 0.00 0.00 36 1024.9
20260906033532 20 193 3.2 8.0 0.00 0.00 0.00 36 1024.9
20260906033110 20 184 3.2 6.4 0.00 0.00 0.00 36 1025.0
20260906032523 20 180 3.2 6.4 0.00 0.00 0.00 35 1024.9
20260906032023 20 188 3.2 8.0 0.00 0.00 0.00 35 1024.9
20260906031644 20 189 3.2 8.0 0.00 0.00 0.00 34 1024.7
20260906031021 20 198 3.2 6.4 0.00 0.00 0.00 34 1024.7
20260906030543 20 188 3.2 6.4 0.00 0.00 0.00 34 1024.6
20260906025531 21 170 3.2 8.0 0.00 0.00 0.00 34 1024.4
20260906025116 21 188 3.2 6.4 0.00 0.00 0.00 33 1024.4
20260906024628 21 194 3.2 6.4 0.00 0.00 0.00 33 1024.4
20260906024036 21 211 1.6 8.0 0.00 0.00 0.00 33 1024.3
20260906023526 21 194 3.2 8.0 0.00 0.00 0.00 32 1024.2
20260906023119 21 223 1.6 9.7 0.00 0.00 0.00 32 1024.0
20260906022545 21 199 3.2 11.3 0.00 0.00 0.00 32 1023.9
20260906022035 21 217 4.8 11.3 0.00 0.00 0.00 32 1023.9
20260906021605 22 184 3.2 9.7 0.00 0.00 0.00 32 1024.0
20260906021029 22 219 3.2 12.9 0.00 0.00 0.00 31 1024.1
20260906020524 22 223 3.2 12.9 0.00 0.00 0.00 31 1024.0
20260906020112 22 216 6.4 12.9 0.00 0.00 0.00 31 1023.9
20260906015532 22 226 6.4 16.1 0.00 0.00 0.00 31 1024.0
20260906015037 22 233 8.0 16.1 0.00 0.00 0.00 31 1024.0
20260906014646 22 202 8.0 16.1 0.00 0.00 0.00 30 1023.9
20260906014044 22 223 8.0 16.1 0.00 0.00 0.00 30 1024.1
20260906013538 22 206 4.8 11.3 0.00 0.00 0.00 29 1023.9
20260906013126 23 192 4.8 9.7 0.00 0.00 0.00 29 1023.9
20260906012532 23 159 4.8 12.9 0.00 0.00 0.00 29 1024.0
20260906012025 23 124 6.4 16.1 0.00 0.00 0.00 28 1024.1
20260906011633 23 239 4.8 16.1 0.00 0.00 0.00 28 1024.2
20260906011025 23 220 4.8 16.1 0.00 0.00 0.00 28 1024.0
20260906010532 23 212 6.4 16.1 0.00 0.00 0.00 27 1024.0
20260906010135 24 238 6.4 16.1 0.00 0.00 0.00 27 1024.1
20260906005528 24 260 4.8 19.3 0.00 0.00 0.00 27 1024.3
20260906005024 24 207 6.4 19.3 0.00 0.00 0.00 26 1024.1
20260906004633 25 240 6.4 19.3 0.00 0.00 0.00 26 1024.3
20260906004027 25 9 8.0 19.3 0.00 0.00 0.00 26 1024.4
20260906003525 25 239 6.4 16.1 0.00 0.00 0.00 25 1024.4
20260906003146 25 185 4.8 16.1 0.00 0.00 0.00 24 1024.2
20260906002527 25 188 6.4 14.5 0.00 0.00 0.00 24 1024.3
20260906002029 25 162 6.4 14.5 0.00 0.00 0.00 24 1024.4
20260906001637 25 184 4.8 14.5 0.00 0.00 0.00 23 1024.4
20260906001111 25 226 8.0 14.5 0.00 0.00 0.00 23 1024.4
20260906000525 25 183 6.4 17.7 0.00 0.00 0.00 24 1024.3
20260906000215 25 204 8.0 17.7 0.00 0.00 0.00 24 1024.4
20260905235543 26 296 8.0 16.1 0.00 0.00 0.00 24 1024.3
20260905235044 26 207 4.8 16.1 0.00 0.00 0.00 23 1024.3
20260905234619 26 181 8.0 17.7 0.00 0.00 0.00 22 1024.2
20260905234025 26 221 9.7 20.9 0.00 0.00 0.00 22 1024.3
20260905233601 26 177 9.7 20.9 0.00 0.00 0.00 22 1024.4
20260905233216 26 165 4.8 19.3 0.00 0.00 0.00 23 1024.4
20260905232542 26 203 11.3 19.3 0.00 0.00 0.00 23 1024.4
20260905232042 26 175 8.0 16.1 0.00 0.00 0.00 23 1024.4
20260905231620 26 161 6.4 17.7 0.00 0.00 0.00 23 1024.3